Weather History for Mount Pleasant, IA

Change the Weather History Date:

Wednesday, November 13, 2013

  Actual Average Record
Temperature  
Mean Temperature 30 °F -  
Max Temperature 46 °F 48 °F 74 °F (1989)
Min Temperature 15 °F 31 °F 4 °F (1986)
Degree Days  
Heating Degree Days 34    
Moisture  
Dew Point 13 °F    
Average Humidity 51    
Maximum Humidity 85    
Minimum Humidity 20    
Precipitation  
Precipitation 0.00 in - - ()
Sea Level Pressure  
Sea Level Pressure 30.40 in    
Wind  
Wind Speed 11 mph (SSW)    
Max Wind Speed 23 mph    
Max Gust Speed 31 mph    
Visibility 10 miles    
Events      
Averages and records for this station are not official NWS values.
T = Trace of Precipitation, MM = Missing Value Source: NWS Daily Summary

Daily Weather History Graph

Daily Weather History Graph

Search for Another Location

Airport:

Trip Planner

Search our weather history database for the weather conditions in past years. The results will help you decide how hot, cold, wet, or windy it might be!

Date:

Astronomy

Nov. 13, 2013 Rise Set
Actual Time 6:51 AM CST 4:48 PM CST
Civil Twilight 6:21 AM CST 5:18 PM CST
Nautical Twilight 5:48 AM CST 5:51 PM CST
Astronomical Twilight 5:16 AM CST 6:23 PM CST
Moon 2:38 PM CST (11/13) 2:43 AM CST (11/13)
Length of Visible Light 10h 56m
Length of Day
9h 57m
Waxing Gibbous, 85% of the Moon is Illuminated
Nov 13
Waxing Gibbous
Nov 17
Full
Nov 25
Last Quarter
Dec 2
New
Dec 9
First Quarter

Hourly Weather History & Observations

Time (CST) Temp. Windchill Dew Point Humidity Pressure Visibility Wind Dir Wind Speed Gust Speed Precip Events Conditions
12:15 AM 17.4 °F 9.1 °F 12.9 °F 83% 30.63 in 10.0 mi SSW 5.8 mph - N/A   Clear
12:35 AM 16.5 °F 9.4 °F 12.2 °F 83% 30.63 in 10.0 mi SSW 4.6 mph - N/A   Clear
12:55 AM 17.6 °F 12.3 °F 13.1 °F 83% 30.63 in 10.0 mi SSW 3.5 mph - N/A   Clear
1:15 AM 18.1 °F - 13.1 °F 81% 30.63 in 10.0 mi Calm Calm - N/A   Clear
1:35 AM 16.9 °F 11.5 °F 12.6 °F 83% 30.63 in 10.0 mi SSW 3.5 mph - N/A   Clear
1:55 AM 16.3 °F 9.2 °F 12.2 °F 84% 30.62 in 10.0 mi South 4.6 mph - N/A   Clear
2:15 AM 15.8 °F 6.1 °F 12.0 °F 85% 30.61 in 10.0 mi South 6.9 mph - N/A   Clear
2:35 AM 17.6 °F 8.2 °F 12.9 °F 82% 30.61 in 10.0 mi South 6.9 mph - N/A   Clear
2:55 AM 17.1 °F 8.7 °F 12.2 °F 81% 30.60 in 10.0 mi SSW 5.8 mph - N/A   Clear
3:15 AM 17.2 °F 10.2 °F 12.2 °F 81% 30.61 in 10.0 mi SSW 4.6 mph - N/A   Clear
3:35 AM 16.7 °F 8.3 °F 12.0 °F 82% 30.60 in 10.0 mi South 5.8 mph - N/A   Clear
3:55 AM 17.1 °F 8.7 °F 11.5 °F 79% 30.59 in 10.0 mi South 5.8 mph - N/A   Clear
4:15 AM 16.9 °F 7.4 °F 11.3 °F 79% 30.59 in 10.0 mi South 6.9 mph - N/A   Clear
4:35 AM 17.1 °F 6.6 °F 11.1 °F 77% 30.59 in 10.0 mi South 8.1 mph - N/A   Clear
4:55 AM 18.0 °F 8.7 °F 11.3 °F 75% 30.59 in 10.0 mi South 6.9 mph - N/A   Clear
5:15 AM 18.0 °F 8.7 °F 11.5 °F 76% 30.58 in 10.0 mi South 6.9 mph - N/A   Clear
5:35 AM 17.6 °F 9.3 °F 11.3 °F 76% 30.58 in 10.0 mi South 5.8 mph - N/A   Clear
5:55 AM 17.6 °F 7.3 °F 11.3 °F 76% 30.57 in 10.0 mi South 8.1 mph - N/A   Clear
6:15 AM 18.5 °F 7.5 °F 11.5 °F 74% 30.56 in 10.0 mi South 9.2 mph - N/A   Clear
6:35 AM 18.3 °F 8.2 °F 11.3 °F 74% 30.56 in 10.0 mi South 8.1 mph - N/A   Clear
6:55 AM 18.0 °F 6.9 °F 11.3 °F 75% 30.55 in 10.0 mi South 9.2 mph - N/A   Clear
7:15 AM 19.2 °F 7.7 °F 12.0 °F 74% 30.54 in 10.0 mi South 10.4 mph - N/A   Clear
7:35 AM 21.0 °F 9.9 °F 12.7 °F 70% 30.54 in 10.0 mi South 10.4 mph - N/A   Clear
7:55 AM 23.4 °F 12.2 °F 13.6 °F 66% 30.53 in 10.0 mi SSW 11.5 mph - N/A   Clear
8:15 AM 25.5 °F 14.3 °F 14.4 °F 63% 30.53 in 10.0 mi SSW 12.7 mph - N/A   Clear
8:35 AM 27.1 °F 16.4 °F 15.1 °F 60% 30.53 in 10.0 mi SSW 12.7 mph - N/A   Clear
8:55 AM 29.1 °F 18.9 °F 16.2 °F 58% 30.52 in 10.0 mi SSW 12.7 mph 18.4 mph N/A   Clear
9:15 AM 30.7 °F 20.4 °F 16.2 °F 55% 30.51 in 10.0 mi SSW 13.8 mph - N/A   Clear
9:35 AM 32.0 °F 22.5 °F 17.2 °F 55% 30.50 in 10.0 mi SSW 12.7 mph 19.6 mph N/A   Clear
9:55 AM 32.7 °F 22.1 °F 16.7 °F 52% 30.50 in 10.0 mi South 16.1 mph - N/A   Clear
10:15 AM 34.0 °F 24.2 °F 16.2 °F 48% 30.49 in 10.0 mi South 15.0 mph - N/A   Clear
10:35 AM 35.4 °F 24.3 °F 15.8 °F 45% 30.47 in 10.0 mi South 20.7 mph - N/A   Clear
10:55 AM 36.3 °F 26.4 °F 15.3 °F 42% 30.46 in 10.0 mi SSW 17.3 mph - N/A   Clear
11:15 AM 37.4 °F 27.8 °F 16.9 °F 43% 30.45 in 10.0 mi SSW 17.3 mph 23.0 mph N/A   Clear
11:35 AM 38.5 °F 28.6 °F 15.6 °F 39% 30.43 in 10.0 mi SSW 19.6 mph 24.2 mph N/A   Clear
11:55 AM 39.7 °F 30.6 °F 15.6 °F 38% 30.41 in 10.0 mi South 18.4 mph 26.5 mph N/A   Clear
12:15 PM 41.0 °F 31.4 °F 14.5 °F 34% 30.40 in 10.0 mi SSW 21.9 mph 27.6 mph N/A   Clear
12:35 PM 42.3 °F 33.1 °F 13.8 °F 32% 30.38 in 10.0 mi SSW 21.9 mph 27.6 mph N/A   Clear
12:55 PM 43.7 °F 35.0 °F 13.3 °F 29% 30.37 in 10.0 mi SSW 21.9 mph 27.6 mph N/A   Clear
1:15 PM 43.7 °F 35.0 °F 11.1 °F 27% 30.36 in 10.0 mi SSW 21.9 mph 28.8 mph N/A   Clear
1:35 PM 44.2 °F 35.4 °F 10.9 °F 26% 30.35 in 10.0 mi SSW 23.0 mph 28.8 mph N/A   Clear
1:55 PM 44.8 °F 36.4 °F 9.0 °F 23% 30.33 in 10.0 mi SSW 21.9 mph 31.1 mph N/A   Clear
2:15 PM 45.7 °F 37.4 °F 8.4 °F 22% 30.32 in 10.0 mi South 23.0 mph 27.6 mph N/A   Clear
2:35 PM 46.2 °F 39.0 °F 8.6 °F 22% 30.31 in 10.0 mi SSW 18.4 mph 26.5 mph N/A   Clear
2:55 PM 46.0 °F 38.0 °F 7.0 °F 20% 30.30 in 10.0 mi SSW 21.9 mph 28.8 mph N/A   Clear
3:15 PM 46.0 °F 39.3 °F 7.2 °F 20% 30.30 in 10.0 mi SSW 16.1 mph 25.3 mph N/A   Clear
3:35 PM 45.9 °F 38.5 °F 7.5 °F 21% 30.28 in 10.0 mi SSW 18.4 mph 26.5 mph N/A   Clear
3:55 PM 45.5 °F 38.9 °F 9.0 °F 23% 30.27 in 10.0 mi SSW 15.0 mph 25.3 mph N/A   Clear
4:15 PM 44.4 °F 37.2 °F 9.3 °F 24% 30.27 in 10.0 mi South 16.1 mph - N/A   Clear
4:35 PM 43.2 °F 36.2 °F 9.7 °F 26% 30.26 in 10.0 mi South 13.8 mph - N/A   Clear
4:55 PM 41.4 °F 33.6 °F 10.2 °F 28% 30.25 in 10.0 mi South 15.0 mph - N/A   Clear
5:15 PM 40.5 °F 32.1 °F 10.9 °F 30% 30.24 in 10.0 mi South 16.1 mph - N/A   Clear
5:35 PM 39.7 °F 31.5 °F 12.0 °F 32% 30.24 in 10.0 mi South 15.0 mph - N/A   Clear
5:55 PM 38.8 °F 30.0 °F 12.9 °F 35% 30.23 in 10.0 mi South 16.1 mph - N/A   Clear
6:15 PM 38.7 °F 29.5 °F 13.1 °F 35% 30.23 in 10.0 mi South 17.3 mph - N/A   Clear
6:35 PM 37.9 °F 28.9 °F 13.8 °F 37% 30.22 in 10.0 mi South 16.1 mph - N/A   Clear
6:55 PM 37.6 °F 29.6 °F 14.7 °F 39% 30.22 in 10.0 mi South 12.7 mph - N/A   Clear
7:15 PM 36.9 °F 28.2 °F 15.3 °F 41% 30.22 in 10.0 mi South 13.8 mph - N/A   Clear
7:35 PM 37.2 °F 28.3 °F 14.9 °F 40% 30.21 in 10.0 mi South 15.0 mph - N/A   Clear
7:55 PM 37.6 °F 28.1 °F 14.7 °F 39% 30.20 in 10.0 mi South 17.3 mph - N/A   Clear
8:15 PM 38.3 °F 28.1 °F 14.4 °F 38% 30.19 in 10.0 mi South 20.7 mph 26.5 mph N/A   Clear
8:35 PM 38.1 °F 27.9 °F 14.4 °F 38% 30.19 in 10.0 mi SSW 20.7 mph 25.3 mph N/A   Clear
8:55 PM 37.6 °F 28.1 °F 14.5 °F 39% 30.19 in 10.0 mi South 17.3 mph 24.2 mph N/A   Clear
9:15 PM 37.6 °F 28.8 °F 14.2 °F 38% 30.18 in 10.0 mi SSW 15.0 mph - N/A   Clear
9:35 PM 37.4 °F 28.2 °F 14.2 °F 39% 30.18 in 10.0 mi SSW 16.1 mph 21.9 mph N/A   Clear
9:55 PM 36.9 °F 27.8 °F 14.7 °F 40% 30.17 in 10.0 mi SSW 15.0 mph 20.7 mph N/A   Clear
10:15 PM 36.7 °F 28.0 °F 15.1 °F 41% 30.17 in 10.0 mi SSW 13.8 mph - N/A   Clear
10:35 PM 36.0 °F 27.5 °F 15.6 °F 44% 30.17 in 10.0 mi SSW 12.7 mph - N/A   Clear
10:55 PM 35.6 °F 27.1 °F 16.3 °F 46% 30.16 in 10.0 mi SSW 12.7 mph - N/A   Clear
11:15 PM 35.8 °F 26.9 °F 16.5 °F 46% 30.15 in 10.0 mi SSW 13.8 mph - N/A   Clear
11:35 PM 36.5 °F 27.8 °F 16.5 °F 44% 30.15 in 10.0 mi SSW 13.8 mph - N/A   Clear
11:55 PM 36.7 °F 26.9 °F 16.5 °F 44% 30.15 in 10.0 mi SSW 17.3 mph - N/A   Clear